Weather History for Langdon, ND

Change the Weather History Date:

Wednesday, January 2, 2013

  Actual Average (KDVL) Record (KDVL)
Temperature  
Mean Temperature 13 °F -  
Max Temperature 26 °F 14 °F 40 °F (1964)
Min Temperature 0 °F -2 °F -27 °F (1968)
Degree Days  
Heating Degree Days 52    
Moisture  
Dew Point 9 °F    
Average Humidity 90    
Maximum Humidity 100    
Minimum Humidity 79    
Precipitation  
Precipitation 0.00 in - - ()
Sea Level Pressure  
Sea Level Pressure 29.94 in    
Wind  
Wind Speed 17 mph (NW)    
Max Wind Speed 26 mph    
Max Gust Speed 33 mph    
Visibility 9 miles    
Events Rain , Snow    
Averages and records for this station are not official NWS values.
T = Trace of Precipitation, MM = Missing Value Source: NWS Daily Summary

Daily Weather History Graph

Daily Weather History Graph

Search for Another Location

Airport:

Trip Planner

Search our weather history database for the weather conditions in past years. The results will help you decide how hot, cold, wet, or windy it might be!

Date:

Astronomy

Jan. 02, 2013 Rise Set
Actual Time 8:26 AM CST 4:49 PM CST
Civil Twilight 7:49 AM CST 5:26 PM CST
Nautical Twilight 7:09 AM CST 6:06 PM CST
Astronomical Twilight 6:31 AM CST 6:44 PM CST
Moon 10:54 PM CST (1/2) 10:41 AM CST (1/2)
Length of Visible Light 9h 36m
Length of Day
8h 22m
Waning Gibbous, 75% of the Moon is Illuminated
Jan 2
Waning Gibbous
Jan 4
Last Quarter
Jan 11
New
Jan 18
First Quarter
Jan 26
Full

Hourly Weather History & Observations

Time (CST) Temp. Windchill Dew Point Humidity Pressure Visibility Wind Dir Wind Speed Gust Speed Precip Events Conditions
12:15 AM 24.8 °F 11.9 °F 24.8 °F 100% 29.72 in 10.0 mi West 16.1 mph - N/A   Overcast
12:35 AM 24.8 °F 11.9 °F 24.8 °F 100% 29.72 in 10.0 mi West 16.1 mph - N/A   Mostly Cloudy
12:55 AM 24.8 °F 11.9 °F 24.8 °F 100% 29.72 in 10.0 mi West 16.1 mph - N/A   Overcast
1:15 AM 26.6 °F 14.3 °F 26.6 °F 100% 29.72 in 10.0 mi West 16.1 mph - N/A   Overcast
1:35 AM 26.6 °F 14.3 °F 26.6 °F 100% 29.71 in 10.0 mi West 16.1 mph - N/A   Overcast
1:55 AM 26.6 °F 14.3 °F 26.6 °F 100% 29.71 in 10.0 mi West 16.1 mph - N/A   Overcast
2:15 AM 26.6 °F 13.4 °F 26.6 °F 100% 29.71 in 10.0 mi West 18.4 mph - N/A   Overcast
2:35 AM 26.6 °F 13.1 °F 26.6 °F 100% 29.71 in 10.0 mi West 19.6 mph - N/A   Overcast
2:55 AM 26.6 °F 11.1 °F 26.6 °F 100% 29.71 in 9.0 mi WNW 26.5 mph 33.4 mph N/A   Overcast
3:15 AM 24.8 °F 10.0 °F 24.8 °F 100% 29.72 in 9.0 mi WNW 21.9 mph 28.8 mph N/A   Mostly Cloudy
3:35 AM 24.8 °F 10.3 °F 23.0 °F 93% 29.73 in 9.0 mi WNW 20.7 mph - N/A   Mostly Cloudy
3:55 AM 24.8 °F 10.3 °F 23.0 °F 93% 29.73 in 10.0 mi WNW 20.7 mph - N/A   Mostly Cloudy
4:15 AM 24.8 °F 9.6 °F 23.0 °F 93% 29.73 in 10.0 mi NW 23.0 mph 28.8 mph N/A   Overcast
4:35 AM 23.0 °F 7.2 °F 21.2 °F 93% 29.73 in 10.0 mi NW 23.0 mph 28.8 mph N/A   Mostly Cloudy
4:55 AM 23.0 °F 8.0 °F 21.2 °F 93% 29.74 in 10.0 mi NW 20.7 mph 26.5 mph N/A   Overcast
5:15 AM 23.0 °F 7.2 °F 21.2 °F 93% 29.74 in 7.0 mi NW 23.0 mph 31.1 mph N/A   Overcast
5:35 AM 23.0 °F 8.3 °F 23.0 °F 100% 29.75 in 4.0 mi NNW 19.6 mph - N/A   Overcast
5:55 AM 21.2 °F 6.8 °F 21.2 °F 100% 29.76 in 4.0 mi North 17.3 mph - N/A   Overcast
6:15 AM 19.4 °F 2.5 °F 19.4 °F 100% 29.77 in 2.5 mi NNW 23.0 mph - N/A   Overcast
6:35 AM 19.4 °F 3.6 °F 19.4 °F 100% 29.79 in 9.0 mi North 19.6 mph 23.0 mph N/A   Overcast
6:55 AM 17.6 °F 0.9 °F 17.6 °F 100% 29.80 in 9.0 mi North 20.7 mph - N/A   Overcast
7:15 AM 17.6 °F 1.7 °F 14.0 °F 86% 29.81 in 10.0 mi North 18.4 mph 23.0 mph N/A   Overcast
7:35 AM 15.8 °F 2.1 °F 14.0 °F 93% 29.82 in 10.0 mi North 12.7 mph - N/A   Overcast
7:55 AM 15.8 °F -0.2 °F 12.2 °F 86% 29.83 in 10.0 mi NNW 17.3 mph - N/A   Overcast
8:15 AM 14.0 °F -1.4 °F 10.4 °F 86% 29.84 in 10.0 mi NNW 15.0 mph - N/A   Scattered Clouds
8:35 AM 10.4 °F -5.4 °F 8.6 °F 92% 29.84 in 10.0 mi NNW 13.8 mph - N/A   Clear
8:55 AM 10.4 °F -4.8 °F 6.8 °F 85% 29.85 in 10.0 mi NNW 12.7 mph - N/A   Clear
9:15 AM 8.6 °F -7.0 °F 6.8 °F 92% 29.86 in 10.0 mi NNW 12.7 mph - N/A   Clear
9:35 AM 8.6 °F -6.3 °F 6.8 °F 92% 29.88 in 10.0 mi NNW 11.5 mph - N/A   Clear
9:55 AM 8.6 °F -8.9 °F 6.8 °F 92% 29.88 in 10.0 mi NNW 16.1 mph - N/A   Clear
10:15 AM 10.4 °F -7.7 °F 6.8 °F 85% 29.89 in 10.0 mi NNW 18.4 mph - N/A   Clear
10:35 AM 8.6 °F -8.9 °F 6.8 °F 92% 29.91 in 10.0 mi NNW 16.1 mph - N/A Snow Light Snow
10:55 AM 10.4 °F -7.7 °F 6.8 °F 85% 29.92 in 8.0 mi NNW 18.4 mph 24.2 mph N/A Snow Light Snow
11:15 AM 10.4 °F -7.2 °F 6.8 °F 85% 29.93 in 8.0 mi NNW 17.3 mph 23.0 mph N/A Snow Light Snow
11:35 AM 10.4 °F -5.4 °F 6.8 °F 85% 29.93 in 10.0 mi NNW 13.8 mph - N/A   Overcast
11:55 AM 10.4 °F -6.0 °F 6.8 °F 85% 29.94 in 10.0 mi NNW 15.0 mph - N/A   Overcast
12:15 PM 10.4 °F -8.6 °F 6.8 °F 85% 29.96 in 7.0 mi NNW 20.7 mph 25.3 mph N/A Rain Light Freezing Rain
12:35 PM 10.4 °F -5.4 °F 6.8 °F 85% 29.96 in 10.0 mi North 13.8 mph - N/A   Overcast
12:55 PM 8.6 °F -10.0 °F 6.8 °F 92% 29.96 in 7.0 mi North 18.4 mph - N/A Snow Light Snow
1:15 PM 8.6 °F -10.5 °F 5.0 °F 85% 29.96 in 10.0 mi North 19.6 mph - N/A   Overcast
1:35 PM 8.6 °F -10.0 °F 5.0 °F 85% 29.97 in 10.0 mi North 18.4 mph - N/A   Mostly Cloudy
1:55 PM 8.6 °F -8.9 °F 5.0 °F 85% 29.97 in 10.0 mi NNW 16.1 mph 21.9 mph N/A   Partly Cloudy
2:15 PM 8.6 °F -7.0 °F 5.0 °F 85% 29.98 in 10.0 mi NNW 12.7 mph 17.3 mph N/A   Scattered Clouds
2:35 PM 8.6 °F -7.7 °F 5.0 °F 85% 29.98 in 10.0 mi NNW 13.8 mph 20.7 mph N/A   Overcast
2:55 PM 8.6 °F -10.0 °F 5.0 °F 85% 30.00 in 10.0 mi NNW 18.4 mph - N/A   Overcast
3:15 PM 8.6 °F -10.0 °F 5.0 °F 85% 30.01 in 9.0 mi NNW 18.4 mph 23.0 mph N/A   Overcast
3:35 PM 6.8 °F -13.4 °F 3.2 °F 85% 30.01 in 6.0 mi NNW 20.7 mph - N/A   Mostly Cloudy
3:55 PM 6.8 °F -12.9 °F 3.2 °F 85% 30.02 in 9.0 mi NNW 19.6 mph - N/A   Mostly Cloudy
4:15 PM 6.8 °F -10.0 °F 3.2 °F 85% 30.04 in 10.0 mi NW 13.8 mph - N/A   Scattered Clouds
4:35 PM 6.8 °F -11.8 °F 3.2 °F 85% 30.05 in 10.0 mi NNW 17.3 mph 21.9 mph N/A Snow Light Snow
4:55 PM 6.8 °F -10.7 °F 1.4 °F 79% 30.06 in 10.0 mi NW 15.0 mph - N/A   Mostly Cloudy
5:15 PM 5.0 °F -13.0 °F 1.4 °F 85% 30.08 in 10.0 mi NNW 15.0 mph - N/A   Mostly Cloudy
5:35 PM 6.8 °F -12.9 °F 1.4 °F 79% 30.08 in 10.0 mi NNW 19.6 mph - N/A   Overcast
5:55 PM 6.8 °F -11.8 °F 1.4 °F 79% 30.10 in 10.0 mi NNW 17.3 mph - N/A   Overcast
6:15 PM 5.0 °F -13.6 °F 1.4 °F 85% 30.11 in 10.0 mi NNW 16.1 mph - N/A   Scattered Clouds
6:35 PM 5.0 °F -14.7 °F 1.4 °F 85% 30.11 in 10.0 mi North 18.4 mph - N/A   Mostly Cloudy
6:55 PM 5.0 °F -13.0 °F 1.4 °F 85% 30.13 in 10.0 mi NNW 15.0 mph - N/A   Overcast
7:15 PM 5.0 °F -12.3 °F 1.4 °F 85% 30.14 in 10.0 mi NNW 13.8 mph - N/A   Mostly Cloudy
7:35 PM 3.2 °F -15.3 °F -0.4 °F 85% 30.15 in 10.0 mi NNW 15.0 mph - N/A   Mostly Cloudy
7:55 PM 1.4 °F -17.6 °F -0.4 °F 92% 30.14 in 10.0 mi NNW 15.0 mph - N/A   Scattered Clouds
8:15 PM 1.4 °F -16.9 °F -0.4 °F 92% 30.15 in 10.0 mi NNW 13.8 mph - N/A   Mostly Cloudy
8:35 PM 1.4 °F -17.6 °F -0.4 °F 92% 30.15 in 10.0 mi NNW 15.0 mph - N/A   Scattered Clouds
8:55 PM -0.4 °F -18.4 °F -0.4 °F 100% 30.15 in 10.0 mi NNW 12.7 mph - N/A   Clear
9:15 PM -0.4 °F -17.6 °F -2.2 °F 92% 30.15 in 10.0 mi NNW 11.5 mph - N/A   Clear
9:35 PM -0.4 °F -14.7 °F -2.2 °F 92% 30.16 in 10.0 mi NNW 8.1 mph - N/A   Clear
9:55 PM -0.4 °F -13.4 °F -2.2 °F 92% 30.16 in 10.0 mi NNW 6.9 mph - N/A   Clear
10:15 PM -0.4 °F -15.7 °F -4.0 °F 85% 30.18 in 10.0 mi NW 9.2 mph - N/A   Clear
10:35 PM -0.4 °F -15.7 °F -4.0 °F 85% 30.19 in 10.0 mi WNW 9.2 mph - N/A   Partly Cloudy
10:55 PM -0.4 °F -16.7 °F -4.0 °F 85% 30.19 in 10.0 mi NW 10.4 mph - N/A   Mostly Cloudy
11:15 PM -0.4 °F -17.6 °F -4.0 °F 85% 30.20 in 10.0 mi NW 11.5 mph - N/A   Mostly Cloudy
11:35 PM -0.4 °F -14.7 °F -2.2 °F 92% 30.19 in 10.0 mi NW 8.1 mph - N/A Snow Light Snow
11:55 PM 1.4 °F -9.9 °F -0.4 °F 92% 30.19 in 10.0 mi West 5.8 mph - N/A   Overcast